Waarnemingen

Advertentie
Mijn weer
Manschnow, Duitsland (10396): temperatuur & dauwpunt: 12.02.2019 01:00:00 - 18.02.2019 01:00:00 (CET)Manschnow, Duitsland (10396): temperatuur 5cm & temperatuur -5cm: 12.02.2019 01:00:00 - 18.02.2019 01:00:00 (CET)Manschnow, Duitsland (10396): temperatuur -20cm & temperatuur -100cm: 12.02.2019 01:00:00 - 18.02.2019 01:00:00 (CET)Manschnow, Duitsland (10396): windsnelheid & windstoten: 12.02.2019 01:00:00 - 18.02.2019 01:00:00 (CET)Manschnow, Duitsland (10396): windrichting: 12.02.2019 01:00:00 - 18.02.2019 01:00:00 (CET)Manschnow, Duitsland (10396): luchtdruk: 12.02.2019 01:00:00 - 18.02.2019 01:00:00 (CET)Manschnow, Duitsland (10396): zicht: 12.02.2019 01:00:00 - 18.02.2019 01:00:00 (CET)Manschnow, Duitsland (10396): Zonneschijnduur: 12.02.2019 01:00:00 - 18.02.2019 01:00:00 (CET)Manschnow, Duitsland (10396): neerslag: 12.02.2019 01:00:00 - 18.02.2019 01:00:00 (CET)
Datum & Tijd tt [°C] td [°C] tt 5cm [°C] tt -5cm [°C] tt -20cm [°C] tt -100cm [°C] ff [km/u] ff [kn] fx [km/u] fx [kn] dd ppp [hPa] vv [km] sd [min] rr [mm]
18.02.2019 01:00:00 2,4 1,4 0,6 1,9 4,2 5,3 9 5 14 7 O 1022,5 2,2 0 0,0
18.02.2019 00:00:00 3,2 1,7 1,0 2,3 4,5 5,3 9 5 11 6 O 1022,4 4,0 0 0,0
17.02.2019 23:00:00 3,1 2,0 0,9 2,8 4,7 5,3 6 4 12 6 O 1022,8 2,2 0 0,0
17.02.2019 22:00:00 3,9 2,4 1,8 3,2 4,9 5,3 8 4 12 7 O 1023,1 3,2 0 0,0
17.02.2019 21:00:00 4,9 2,8 2,5 3,8 5,2 5,3 10 5 14 8 O 1023,1 4,3 0 0,0
17.02.2019 20:00:00 6,3 2,8 4,0 4,4 5,4 5,3 10 5 17 9 O 1023,1 7 0 0,0
17.02.2019 19:00:00 7,2 2,0 4,7 5,1 5,6 5,3 9 5 14 8 O 1023,2 7 0 0,0
17.02.2019 18:00:00 8,5 2,3 4,8 6,3 5,7 5,3 7 4 12 6 O 1023,3 11 0 0,0
17.02.2019 17:00:00 10,8 2,8 7,6 8,2 5,6 5,3 6 3 9 5 O 1023,3 12 42 0,0
17.02.2019 16:00:00 11,9 3,5 10,8 9,7 5,2 5,3 3 2 6 4 ZO 1023,8 15 58 0,0
17.02.2019 15:00:00 12,7 2,8 14,0 10,5 4,6 5,3 3 2 7 4 ZZO 1024,2 15 60 0,0
17.02.2019 14:00:00 11,8 2,5 13,7 10,1 3,9 5,3 4 2 8 5 Z 1024,7 13 60 0,0
17.02.2019 13:00:00 10,5 2,6 12,5 8,9 3,2 5,3 5 3 8 5 ZO 1025,1 18 60 0,0
17.02.2019 12:00:00 8,7 2,7 11,0 6,5 2,7 5,3 6 3 9 5 ZZO 1025,6 20 60 0,0
17.02.2019 11:00:00 6,4 1,5 8,0 3,2 2,5 5,3 6 3 9 5 ZZW 1026,0 18 60 0,0
17.02.2019 10:00:00 4,4 1,0 5,2 0,9 2,6 5,3 5 3 7 4 ZZO 1026,0 15 60 0,0
17.02.2019 09:00:00 2,0 -0,9 1,1 0,9 2,7 5,3 4 2 9 5 Z 1026,2 17 50 0,0
17.02.2019 08:00:00 -1,4 -3,1 -2,2 0,8 2,8 5,3 5 3 7 4 Z 1025,9 16 0 0,0
17.02.2019 07:00:00 -1,0 -2,8 -2,5 0,9 2,8 5,3 5 3 8 4 Z 1025,5 18 0 0,0
17.02.2019 06:00:00 -0,2 -2,1 -3,2 1,0 3,0 5,3 6 3 9 5 ZZW 1025,3 23 0 0,0
17.02.2019 05:00:00 0,3 -2,1 -2,8 1,0 3,1 5,3 4 2 9 5 Z 1025,3 25 0 0,0
17.02.2019 04:00:00 0,6 -1,9 -3,0 1,1 3,2 5,3 7 4 8 5 ZZW 1025,0 26 0 0,0
17.02.2019 03:00:00 1,2 -1,9 -2,8 1,2 3,3 5,3 5 3 12 6 ZZW 1024,9 22 0 0,0
17.02.2019 02:00:00 1,5 -1,6 -1,9 1,3 3,5 5,3 8 4 11 6 Z 1024,8 24 0 0,0
17.02.2019 01:00:00 1,1 -1,8 -1,9 1,3 3,7 5,3 7 4 11 6 ZZW 1024,8 24 0 0,0
17.02.2019 00:00:00 0,9 -1,9 -1,5 1,1 4,0 5,3 8 4 12 6 Z 1024,8 22 0 0,0
16.02.2019 23:00:00 3,1 -1,4 -1,8 1,5 4,3 5,3 6 3 9 5 Z 1024,7 39 0 0,0
16.02.2019 22:00:00 4,0 -1,2 -2,1 2,0 4,6 5,3 5 3 11 6 Z 1024,4 33 0 0,0
16.02.2019 21:00:00 3,5 -0,8 -1,9 2,7 4,9 5,3 4 2 11 6 ZZW 1024,4 31 0 0,0
16.02.2019 20:00:00 6,0 -0,4 -0,3 3,5 5,2 5,3 8 5 14 8 ZW 1024,3 58 0 0,0
16.02.2019 19:00:00 7,1 0,5 1,5 4,5 5,4 5,3 9 5 11 6 ZZW 1024,3 46 0 0,0
16.02.2019 18:00:00 8,1 1,4 2,0 5,8 5,5 5,3 9 5 14 8 ZZW 1024,3 40 14 0,0
16.02.2019 17:00:00 12,0 2,0 8,2 7,8 5,3 5,3 11 6 13 7 ZZW 1024,1 70 60 0,0
16.02.2019 16:00:00 14,5 3,0 13,7 9,2 5,0 5,3 9 5 19 10 ZW 1024,6 58 60 0,0
16.02.2019 15:00:00 15,0 1,4 15,1 9,7 4,4 5,3 15 8 22 12 ZW 1025,1 31 60 0,0
16.02.2019 14:00:00 13,9 3,0 14,8 9,2 3,8 5,3 14 8 24 13 ZZW 1025,3 31 60 0,0
16.02.2019 13:00:00 12,3 1,8 13,4 8,1 3,1 5,3 15 8 21 12 ZZW 1025,9 34 60 0,0
16.02.2019 12:00:00 10,5 1,6 11,4 6,0 2,6 5,3 15 8 24 13 ZZW 1026,4 31 60 0,0
16.02.2019 11:00:00 8,0 2,0 9,4 2,0 2,5 5,3 6 3 15 8 ZZO 1026,7 22 60 0,0
16.02.2019 10:00:00 5,1 0,1 5,8 0,8 2,6 5,3 4 2 7 4 ZO 1027,2 20 60 0,0
16.02.2019 09:00:00 1,9 -1,1 1,4 0,8 2,7 5,3 5 3 8 4 ZO 1027,4 14 60 0,0
16.02.2019 08:00:00 -0,4 -2,7 -1,5 0,8 2,8 5,3 6 4 11 6 ZO 1027,6 13 18 0,0
16.02.2019 07:00:00 -1,0 -3,0 -3,0 0,8 2,9 5,3 9 5 13 7 ZO 1027,5 14 0 0,0
16.02.2019 06:00:00 -1,1 -3,1 -2,5 0,9 3,0 5,3 7 4 10 6 ZO 1027,9 12 0 0,0
16.02.2019 05:00:00 0,1 -2,4 -2,5 1,0 3,1 5,3 8 4 10 5 ZZO 1028,4 14 0 0,0
16.02.2019 04:00:00 -0,2 -2,5 -2,3 1,1 3,2 5,3 6 3 10 5 ZZO 1028,7 13 0 0,0
16.02.2019 03:00:00 -1,1 -2,8 -2,6 1,2 3,4 5,2 5 3 8 4 OZO 1029,3 7 0 0,0
16.02.2019 02:00:00 0,6 -1,9 -1,0 1,2 3,5 5,2 6 3 7 4 OZO 1030,0 12 0 0,0
16.02.2019 01:00:00 -0,6 -2,3 -3,0 1,3 3,7 5,2 5 3 8 4 OZO 1030,5 11 0 0,0
16.02.2019 00:00:00 1,7 -1,2 -2,4 1,4 4,0 5,2 6 3 9 5 OZO 1030,6 13 0 0,0
15.02.2019 23:00:00 1,3 -1,2 -2,2 1,4 4,3 5,2 6 4 8 4 OZO 1030,7 10 0 0,0
15.02.2019 22:00:00 0,3 -1,7 -2,2 1,8 4,6 5,2 4 2 7 4 ZZO 1031,2 12 0 0,0
15.02.2019 21:00:00 2,2 -0,5 -1,8 2,5 4,9 5,2 5 3 5 3 ZZO 1031,4 18 0 0,0
15.02.2019 20:00:00 3,2 0,2 -1,2 3,3 5,2 5,2 5 3 8 4 Z 1031,8 22 0 0,0
15.02.2019 19:00:00 3,5 0,3 -0,3 4,3 5,5 5,2 5 3 8 4 ZZO 1032,2 23 0 0,0
15.02.2019 18:00:00 5,9 1,9 2,0 5,8 5,6 5,2 4 2 6 3 Z 1032,2 20 10 0,0
15.02.2019 17:00:00 9,6 2,7 6,6 7,9 5,4 5,2 5 3 10 5 ZZW 1032,2 27 60 0,0
15.02.2019 16:00:00 12,3 0,6 12,0 9,3 5,1 5,2 7 4 11 6 ZW 1032,6 34 60 0,0
15.02.2019 15:00:00 12,4 0,6 13,6 9,8 4,5 5,2 6 3 10 6 ZW 1033,0 26 60 0,0
15.02.2019 14:00:00 11,4 1,4 12,8 9,5 3,8 5,2 5 3 10 5 W 1033,5 21 60 0,0
15.02.2019 13:00:00 10,3 2,2 12,6 8,2 3,1 5,2 6 4 11 6 W 1033,9 15 60 0,0
15.02.2019 12:00:00 8,8 1,6 10,7 5,4 2,7 5,2 5 3 10 6 W 1034,2 13 60 0,0
15.02.2019 11:00:00 6,0 1,1 7,2 1,1 2,6 5,2 7 4 11 6 W 1034,5 15 60 0,0
15.02.2019 10:00:00 3,3 0,3 4,0 0,8 2,7 5,2 5 3 9 5 ZW 1034,5 11 60 0,0
15.02.2019 09:00:00 0,7 -1,4 0,1 0,8 2,8 5,1 7 4 9 5 ZW 1034,6 11 60 0,0
15.02.2019 08:00:00 -0,7 -2,2 -2,3 0,8 2,9 5,1 7 4 10 6 ZZW 1034,3 9 4 0,0
15.02.2019 07:00:00 -0,9 -2,2 -2,6 0,8 3,0 5,1 9 5 11 6 ZZW 1033,9 9 0 0,0
15.02.2019 06:00:00 -1,0 -2,2 -3,2 0,9 3,1 5,1 5 3 10 5 ZW 1034,1 7 0 0,0
15.02.2019 05:00:00 -0,7 -1,8 -3,1 1,0 3,2 5,1 5 3 9 5 ZZW 1034,0 8 0 0,0
15.02.2019 04:00:00 -1,4 -2,6 -3,1 1,0 3,3 5,1 6 3 11 6 Z 1033,8 5 0 0,0
15.02.2019 03:00:00 -0,1 -1,2 -2,4 1,1 3,5 5,1 8 4 11 6 ZZW 1034,0 7 0 0,0
15.02.2019 02:00:00 0,6 -0,4 -2,3 1,1 3,7 5,1 8 4 11 6 ZZW 1034,3 6 0 0,0
15.02.2019 01:00:00 0,6 -0,4 -1,6 1,2 3,9 5,1 8 4 11 6 Z 1034,4 5 0 0,0
15.02.2019 00:00:00 0,5 -0,3 -2,1 1,1 4,2 5,1 6 4 8 4 ZZW 1034,4 4,0 0 0,0
14.02.2019 23:00:00 0,6 -0,2 -1,9 1,4 4,5 5,1 7 4 9 5 ZZW 1034,2 4,7 0 0,0
14.02.2019 22:00:00 1,1 0,0 -1,7 2,0 4,8 5,1 6 4 9 5 Z 1034,2 7 0 0,0
14.02.2019 21:00:00 2,0 1,0 -0,7 2,6 5,2 5,1 7 4 12 6 ZZW 1034,1 10 0 0,0
14.02.2019 20:00:00 2,7 1,4 0,0 3,4 5,5 5,1 9 5 12 7 ZZW 1034,5 10 0 0,0
14.02.2019 19:00:00 4,0 2,6 0,2 4,3 5,7 5,1 6 3 8 5 ZZW 1034,6 12 0 0,0
14.02.2019 18:00:00 5,3 3,0 2,1 5,5 5,9 5,0 4 2 9 5 Z 1034,7 12 0 0,0
14.02.2019 17:00:00 8,3 3,7 5,6 7,1 5,9 5,0 7 4 11 6 WZW 1034,1 19 37 0,0
14.02.2019 16:00:00 9,2 3,9 8,5 8,1 5,8 5,0 8 4 17 9 WZW 1034,5 24 1 0,0
14.02.2019 15:00:00 9,5 4,3 9,8 8,3 5,6 5,0 10 6 16 9 W 1034,6 24 2 0,0
14.02.2019 14:00:00 8,8 4,6 8,9 8,3 5,3 5,0 12 7 23 12 WZW 1035,1 15 0 0,0
14.02.2019 13:00:00 9,0 4,8 9,8 8,2 5,1 5,0 14 7 21 11 WZW 1035,2 14 0 0,0
14.02.2019 12:00:00 7,8 5,2 8,3 7,0 5,0 5,0 11 6 20 11 WZW 1035,2 9 0 0,0
14.02.2019 11:00:00 7,3 4,8 7,3 6,5 4,8 5,0 12 6 20 11 WZW 1035,7 9 0 0,0
14.02.2019 10:00:00 7,1 4,7 7,1 6,2 4,8 5,0 10 5 19 10 W 1035,4 9 0 0,0
14.02.2019 09:00:00 6,8 5,0 6,7 5,6 4,7 5,0 10 5 17 9 W 1035,3 7 0 0,0
14.02.2019 08:00:00 6,3 5,0 5,6 5,3 4,7 5,0 14 8 18 10 W 1035,0 6 0 0,0
14.02.2019 07:00:00 6,6 5,4 6,1 5,4 4,7 5,0 9 5 17 9 W 1034,6 5 0 0,0
14.02.2019 06:00:00 6,8 5,6 6,4 5,5 4,7 5,0 11 6 20 11 W 1034,2 4,6 0 0,0
14.02.2019 05:00:00 6,9 5,9 6,5 5,5 4,7 5,0 14 7 22 12 W 1034,0 3,6 0 0,0
14.02.2019 04:00:00 6,9 5,9 6,4 5,6 4,6 5,0 12 7 21 11 W 1033,7 3,5 0 0,0
14.02.2019 03:00:00 7,1 5,9 6,7 5,6 4,6 5,0 14 8 26 14 W 1033,6 4,1 0 0,0
14.02.2019 02:00:00 7,3 5,8 6,8 5,6 4,5 5,0 15 8 26 14 W 1033,6 4,6 0 0,0
14.02.2019 01:00:00 7,4 5,9 6,9 5,6 4,5 5,0 16 9 26 14 W 1033,4 4,9 0 0,0
14.02.2019 00:00:00 7,3 6,0 6,6 5,5 4,4 5,0 18 10 25 13 W 1033,2 5 0 0,0
13.02.2019 23:00:00 7,3 6,2 6,6 5,5 4,4 5,0 17 9 30 16 W 1032,8 3,1 0 0,0
13.02.2019 22:00:00 7,6 5,8 7,1 5,4 4,3 5,0 16 8 31 17 W 1032,8 8 0 0,0
13.02.2019 21:00:00 7,6 5,8 7,0 5,3 4,3 5,0 17 9 28 15 W 1032,4 7 0 0,0
13.02.2019 20:00:00 7,6 5,7 6,8 5,2 4,2 5,0 15 8 27 15 WZW 1032,1 7 0 0,0
13.02.2019 19:00:00 7,4 5,5 6,6 5,1 4,2 5,0 16 9 29 16 WZW 1032,0 7 0 0,0
13.02.2019 18:00:00 7,8 5,4 7,0 5,4 4,1 5,0 19 11 35 19 WZW 1031,5 8 0 0,0
13.02.2019 17:00:00 7,9 5,3 7,1 5,7 4,0 5,0 22 12 33 18 W 1031,0 9 0 0,0
13.02.2019 16:00:00 8,0 5,5 7,6 5,8 3,9 5,0 16 9 29 15 W 1031,2 8 0 0,0
13.02.2019 15:00:00 8,0 5,5 7,6 5,6 3,7 5,0 15 8 24 13 W 1030,8 8 0 0,0
13.02.2019 14:00:00 7,3 5,5 7,0 5,4 3,5 5,0 13 7 24 13 WZW 1030,6 6 0 0,0
13.02.2019 13:00:00 7,0 5,3 6,8 5,2 3,3 5,0 16 9 29 16 W 1030,5 6 0 0,0
13.02.2019 12:00:00 6,5 5,2 6,2 5,1 3,1 5,0 19 11 31 17 WZW 1030,0 4,5 0 0,0
13.02.2019 11:00:00 6,3 5,0 5,9 4,5 2,9 5,0 20 11 30 16 W 1029,6 4,2 0 0,0
13.02.2019 10:00:00 6,0 4,0 5,5 3,8 2,7 5,0 19 10 29 16 W 1029,3 4,8 0 0,0
13.02.2019 09:00:00 5,4 3,6 5,0 3,2 2,6 5,0 17 9 33 18 W 1029,1 5 0 0,0
13.02.2019 08:00:00 5,1 2,9 4,6 2,8 2,5 5,0 20 11 32 17 W 1028,8 6 0 0,0
13.02.2019 07:00:00 4,3 2,5 3,7 2,5 2,5 5,0 14 8 26 14 WZW 1028,7 6 0 0,0
13.02.2019 06:00:00 3,8 2,1 3,3 2,1 2,4 5,0 14 8 29 15 WZW 1029,0 6 0 0,0
13.02.2019 05:00:00 3,3 1,8 2,6 1,7 2,4 5,0 15 8 26 14 WZW 1028,9 6 0 0,0
13.02.2019 04:00:00 2,8 1,5 2,1 1,6 2,4 5,0 15 8 23 12 WZW 1029,3 8 0 0,1
13.02.2019 03:00:00 2,1 1,0 1,5 1,5 2,5 5,0 11 6 20 11 ZW 1030,4 8 0 0,8
13.02.2019 02:00:00 2,3 0,3 1,4 1,0 2,5 5,0 9 5 16 8 WZW 1030,8 11 0 0,0
13.02.2019 01:00:00 2,4 -0,9 1,2 0,9 2,7 5,0 10 6 16 9 W 1030,8 14 0 0,0
13.02.2019 00:00:00 1,5 -2,4 0,4 0,9 2,8 4,9 10 5 16 9 W 1030,9 50 0 0,0
12.02.2019 23:00:00 1,4 -2,9 0,1 1,0 2,9 4,9 10 5 15 8 W 1030,6 50 0 0,0
12.02.2019 22:00:00 1,3 -3,2 0,2 1,1 3,1 4,9 10 6 26 14 W 1030,7 68 0 0,0
12.02.2019 21:00:00 1,8 -3,1 0,4 1,2 3,3 4,9 16 9 23 12 W 1030,4 64 0 0,0
12.02.2019 20:00:00 1,8 -3,2 0,6 1,3 3,6 4,9 13 7 17 9 W 1030,4 70 0 0,0
12.02.2019 19:00:00 0,8 -3,3 -1,6 1,5 3,9 4,9 12 7 16 9 W 1030,2 67 0 0,0
12.02.2019 18:00:00 1,5 -3,3 -2,0 2,7 4,1 4,9 8 5 16 9 W 1029,4 70 0 0,0
12.02.2019 17:00:00 3,6 -2,0 2,2 4,4 4,1 4,9 11 6 29 16 WNW 1028,9 70 58 0,0
12.02.2019 16:00:00 5,0 -2,4 5,0 5,7 3,9 4,9 16 9 24 13 NW 1028,3 67 46 0,0
12.02.2019 15:00:00 6,1 -3,1 8,6 6,6 3,6 4,9 14 8 35 19 NW 1027,7 53 46 0,0
12.02.2019 14:00:00 5,4 -2,9 7,1 6,3 3,2 4,9 20 11 37 20 NW 1027,2 70 52 0,0
12.02.2019 13:00:00 5,7 -2,3 8,1 6,2 2,8 4,9 23 12 38 21 WNW 1026,4 28 59 0,0
12.02.2019 12:00:00 4,8 -2,5 6,5 4,4 2,5 4,9 28 15 41 22 WNW 1026,2 52 43 0,0
12.02.2019 11:00:00 3,7 -1,5 3,7 3,0 2,3 4,9 19 11 39 21 NW 1025,7 49 38 0,0
12.02.2019 10:00:00 3,7 -0,8 4,5 1,3 2,2 4,9 23 13 34 18 WNW 1024,9 39 40 0,0
12.02.2019 09:00:00 2,5 -1,3 1,9 0,7 2,3 4,9 21 11 30 16 WNW 1024,1 52 13 0,0
12.02.2019 08:00:00 2,1 -1,4 1,5 0,7 2,4 4,9 18 10 29 16 WNW 1023,3 59 0 0,0
12.02.2019 07:00:00 2,0 -1,3 1,2 0,7 2,4 4,8 19 10 29 15 WNW 1022,4 50 0 0,0
12.02.2019 06:00:00 2,2 -1,5 1,4 0,8 2,5 4,8 19 11 32 18 WNW 1021,8 54 0 0,0
12.02.2019 05:00:00 2,1 -1,9 0,5 0,8 2,6 4,8 21 11 32 17 WNW 1021,1 54 0 0,0
12.02.2019 04:00:00 2,2 -1,9 1,2 0,8 2,7 4,8 22 12 34 19 WNW 1020,4 58 0 0,0
12.02.2019 03:00:00 1,8 -2,3 0,5 0,9 2,8 4,8 23 12 33 18 WNW 1019,7 56 0 0,0
12.02.2019 02:00:00 2,0 -2,3 0,9 0,9 3,0 4,8 22 12 35 19 W 1019,4 48 0 0,0
12.02.2019 01:00:00 1,8 -2,2 0,7 0,9 3,1 4,8 23 12 33 18 W 1019,0 54 0 0,0

tt = temperatuur
td = dauwpunt
tt 5cm = temperatuur 5cm
tt -5cm = temperatuur -5cm
tt -20cm = temperatuur -20cm
tt -100cm = temperatuur -100cm
ff = windsnelheid
fx = windstoten
dd = windrichting
ppp = luchtdruk
vv = zicht
sd = Zonneschijnduur
rr = neerslag

Weerstations in de omgeving